Location: Maccacari
(45.1333°N, 11.1333°E)
Time: 15:12:22
(UTC+00:00)

S-56A Canister/Altair - Pass Details

Date: 29 January 2021
Orbit: 631 x 2501 km, 38.9° (Epoch: 01 March)

Event Time Altitude Azimuth Distance (km) Brightness Sun altitude
Rises 00:20:24 0° 235° (SW) 3,505 - -60.7°
Reaches altitude 10° 00:23:29 10° 225° (SW) 2,349 - -60.5°
Maximum altitude 00:27:58 29° 166° (SSE) 1,237 - -60.1°
Drops below altitude 10° 00:31:50 10° 105° (ESE) 2,015 - -59.8°
Sets 00:34:16 0° 94° (E) 2,917 - -59.5°
